Home > Weather > Menominee > Past weeks

Flag for U.S.A. Weather for the Past 2 Weeks in Menominee, Michigan, U.S.A.

Now
28 °F

Mostly cloudy.


Feels Like: 20 °F
Forecast: 29 / 36 °F
Wind: 8 mph from Southwest

Location: Menominee Weather Reporting Station

Current Time: Feb 7, 2016 at 12:48:45 AM

Latest Report: Feb 7, 2016 at 12:15 AM


Visibility: 9 mi

Pressure: 29.90 "Hg

Humidity: 86%

Dew point: 25 °F

Location of MenomineeLocation

Historic Weather in Menominee — Graph

°F

Menominee Temperature Yesterday

Maximum temperature yesterday: 30 °F (at 2:35 PM)
Minimum temperature yesterday: 21 °F (at 12:15 AM)
Average temperature yesterday: 27 °F

High & Low Weather Summary for the Past Weeks

 TemperatureHumidityPressure
High41 °F (Jan 30, 2:55 PM)100% (Jan 25, 7:35 AM)30.32 "Hg (Jan 25, 7:35 AM)
Low3 °F (Jan 29, 7:35 AM)53% (Jan 29, 10:55 AM)29.39 "Hg (Jan 28, 3:15 AM)
Average27 °F78%29.88 "Hg
* Reported Jan 22 11:15 PM — Feb 6 11:35 PM, Menominee, Weather by CustomWeather, © 2016

Note: Actual official high and low records may vary slightly from our data, if they occured in-between our weather recording intervals... More about our weather records

Advertising

Menominee Weather History for the Previous 24 Hours

 ConditionsComfort  
Time TempWeatherWind HumidityBarometerVisibility
11:35 PM
Sat, Feb 6
30 °FMostly cloudy.9 mph75%29.92 "Hg10 mi
11:15 PM30 °FMostly cloudy.10 mph80%29.93 "Hg10 mi
10:55 PM30 °FMostly cloudy.9 mph75%29.93 "Hg10 mi
10:35 PM28 °FMostly cloudy.12 mph86%29.93 "Hg10 mi
10:15 PM30 °FMostly cloudy.13 mph80%29.94 "Hg10 mi
9:35 PM28 °FOvercast.14 mph86%29.95 "Hg10 mi
9:15 PM28 °FOvercast.13 mph86%29.95 "Hg10 mi
8:55 PM28 °FMostly cloudy.14 mph86%29.95 "Hg10 mi
8:35 PM28 °FOvercast.13 mph86%29.96 "Hg10 mi
8:15 PM28 °FOvercast.12 mph86%29.97 "Hg10 mi
7:35 PM28 °FOvercast.9 mph80%29.99 "Hg10 mi
7:15 PM28 °FOvercast.10 mph80%30.00 "Hg10 mi
6:55 PM28 °FOvercast.10 mph74%30.01 "Hg10 mi
6:35 PM28 °FOvercast.10 mph80%30.01 "Hg10 mi
6:15 PM28 °FOvercast.9 mph80%30.01 "Hg10 mi
5:55 PM28 °FOvercast.8 mph80%30.02 "Hg10 mi
5:35 PM30 °FOvercast.8 mph69%30.02 "Hg9 mi
5:15 PM30 °FOvercast.7 mph69%30.03 "Hg9 mi
4:55 PM30 °FOvercast.7 mph75%30.04 "Hg10 mi
4:35 PM30 °FOvercast.9 mph69%30.04 "Hg10 mi
4:15 PM30 °FOvercast.10 mph69%30.04 "Hg10 mi
3:55 PM30 °FOvercast.8 mph69%30.04 "Hg10 mi
2:55 PM30 °FOvercast.9 mph69%30.05 "Hg10 mi
2:35 PM30 °FMore clouds than sun.9 mph69%30.05 "Hg10 mi
2:15 PM28 °FMostly cloudy.7 mph74%30.05 "Hg9 mi
1:55 PM28 °FOvercast.9 mph74%30.05 "Hg9 mi
1:35 PM28 °FOvercast.9 mph74%30.06 "Hg8 mi
1:15 PM28 °FOvercast.9 mph69%30.07 "Hg10 mi
12:55 PM28 °FOvercast.6 mph74%30.08 "Hg10 mi
12:35 PM28 °FOvercast.8 mph74%30.08 "Hg10 mi
12:15 PM28 °FOvercast.12 mph69%30.09 "Hg10 mi
11:55 AM28 °FOvercast.7 mph69%30.10 "Hg10 mi
11:35 AM27 °FOvercast.9 mph74%30.10 "Hg10 mi
11:15 AM27 °FOvercast.6 mph74%30.10 "Hg10 mi
10:55 AM27 °FOvercast.8 mph74%30.11 "Hg10 mi
10:35 AM27 °FOvercast.6 mph74%30.12 "Hg10 mi
10:15 AM27 °FOvercast.6 mph74%30.12 "Hg10 mi
9:55 AM27 °FOvercast.5 mph69%30.12 "Hg10 mi
9:35 AM27 °FOvercast.7 mph74%30.13 "Hg10 mi
9:15 AM27 °FOvercast.8 mph74%30.13 "Hg10 mi
8:55 AM27 °FOvercast.6 mph74%30.12 "Hg10 mi
8:35 AM25 °FOvercast.7 mph80%30.12 "Hg10 mi
8:15 AM25 °FOvercast.6 mph80%30.12 "Hg10 mi
7:55 AM25 °FOvercast.5 mph80%30.12 "Hg10 mi
7:35 AM25 °FOvercast.5 mph80%30.12 "Hg10 mi
7:15 AM25 °FOvercast.6 mph80%30.12 "Hg10 mi
6:55 AM25 °FOvercast.5 mph80%30.12 "Hg10 mi
6:35 AM25 °FOvercast.8 mph80%30.12 "Hg10 mi
6:15 AM25 °FMostly cloudy.7 mph80%30.12 "Hg10 mi
5:55 AM25 °FOvercast.6 mph80%30.12 "Hg10 mi
5:35 AM25 °FOvercast.6 mph80%30.13 "Hg10 mi
5:15 AM25 °FMostly cloudy.7 mph80%30.12 "Hg10 mi
4:55 AM25 °FOvercast.6 mph74%30.12 "Hg8 mi
4:35 AM25 °FMostly cloudy.6 mph74%30.12 "Hg10 mi
4:15 AM25 °FPartly cloudy.8 mph74%30.12 "Hg10 mi
3:55 AM25 °FPartly cloudy.6 mph74%30.12 "Hg10 mi
3:35 AM25 °FMostly cloudy.7 mph74%30.12 "Hg10 mi
3:15 AM25 °FOvercast.9 mph74%30.13 "Hg10 mi
2:55 AM25 °FMostly cloudy.9 mph74%30.13 "Hg10 mi
2:35 AM25 °FMostly cloudy.8 mph74%30.14 "Hg10 mi
2:15 AM25 °FOvercast.8 mph74%30.14 "Hg10 mi
1:55 AM25 °FOvercast.7 mph74%30.15 "Hg10 mi
1:35 AM25 °FOvercast.9 mph74%30.15 "Hg10 mi
1:15 AM23 °FOvercast.8 mph80%30.14 "Hg10 mi
12:55 AM23 °FMostly cloudy.8 mph74%30.15 "Hg10 mi
12:35 AM21 °FOvercast.8 mph86%30.16 "Hg10 mi
12:15 AM21 °FMostly cloudy.8 mph80%30.16 "Hg10 mi
Weather by CustomWeather, © 2016

See weather overviewHow to use our weather pages